Change the Weather History Date:

Tuesday, November 19, 2013

  Actual Average Record
Temperature  
Mean Temperature 37 °F -  
Max Temperature 44 °F 48 °F 63 °F (1971)
Min Temperature 30 °F 33 °F 15 °F (2014)
Degree Days  
Heating Degree Days 28    
Moisture  
Dew Point 21 °F    
Average Humidity 54    
Maximum Humidity 79    
Minimum Humidity 37    
Precipitation  
Precipitation 0.00 in - - ()
Sea Level Pressure  
Sea Level Pressure 30.32 in    
Wind  
Wind Speed 9 mph (North)    
Max Wind Speed 13 mph    
Max Gust Speed 21 mph    
Visibility 10 miles    
Events      
Averages and records for this station are not official NWS values.
T = Trace of Precipitation, MM = Missing Value Source: NWS Daily Summary

Daily Weather History Graph

Daily Weather History Graph

Search for Another Location

Airport or City:

Trip Planner

Search our weather history database for the weather conditions in past years. The results will help you decide how hot, cold, wet, or windy it might be!

Date:

Astronomy

Nov. 19, 2013 Rise Set
Actual Time 7:29 AM EST 5:08 PM EST
Civil Twilight 6:59 AM EST 5:39 PM EST
Nautical Twilight 6:25 AM EST 6:13 PM EST
Astronomical Twilight 5:51 AM EST 6:46 PM EST
Moon 6:59 PM EST (11/19) 9:08 AM EST (11/19)
Length of Visible Light 10h 40m
Length of Day
9h 39m
Waning Gibbous, 96% of the Moon is Illuminated
Nov 19
Waning Gibbous
Nov 25
Last Quarter
Dec 2
New
Dec 9
First Quarter
Dec 17
Full

Hourly Weather History & Observations

Time (EST) Temp. Windchill Dew Point Humidity Pressure Visibility Wind Dir Wind Speed Gust Speed Precip Events Conditions
12:53 AM 37.9 °F 30.5 °F 21.9 °F 53% 30.16 in 10.0 mi WNW 11.5 mph - N/A   Overcast
1:53 AM 37.9 °F 30.5 °F 21.9 °F 53% 30.17 in 10.0 mi WNW 11.5 mph 20.7 mph N/A   Overcast
2:53 AM 37.9 °F 30.0 °F 23.0 °F 55% 30.19 in 10.0 mi NW 12.7 mph 18.4 mph N/A   Overcast
3:53 AM 37.0 °F 30.4 °F 23.0 °F 57% 30.20 in 10.0 mi NW 9.2 mph - N/A   Overcast
4:53 AM 37.0 °F 29.8 °F 23.0 °F 57% 30.22 in 10.0 mi NW 10.4 mph - N/A   Overcast
5:53 AM 37.0 °F 29.3 °F 21.9 °F 54% 30.25 in 10.0 mi NW 11.5 mph - N/A   Overcast
6:53 AM 37.0 °F 32.4 °F 21.9 °F 54% 30.29 in 10.0 mi NNW 5.8 mph - N/A   Overcast
7:53 AM 36.0 °F 28.0 °F 21.0 °F 55% 30.32 in 10.0 mi NNW 11.5 mph 16.1 mph N/A   Overcast
8:53 AM 37.0 °F 29.8 °F 19.9 °F 50% 30.33 in 10.0 mi North 10.4 mph - N/A   Partly Cloudy
9:53 AM 39.0 °F 32.3 °F 21.0 °F 49% 30.35 in 10.0 mi North 10.4 mph - N/A   Mostly Cloudy
10:53 AM 39.0 °F 33.4 °F 19.9 °F 46% 30.36 in 10.0 mi North 8.1 mph - N/A   Clear
11:53 AM 41.0 °F 34.7 °F 21.0 °F 45% 30.35 in 10.0 mi North 10.4 mph - N/A   Clear
12:53 PM 42.1 °F 39.2 °F 19.9 °F 41% 30.35 in 10.0 mi North 4.6 mph - N/A   Clear
1:53 PM 43.0 °F 41.3 °F 19.9 °F 40% 30.34 in 10.0 mi Variable 3.5 mph - N/A   Clear
2:53 PM 44.1 °F - 19.9 °F 38% 30.34 in 10.0 mi Calm Calm - N/A   Clear
3:53 PM 44.1 °F - 19.0 °F 37% 30.35 in 10.0 mi Calm Calm - N/A   Clear
4:53 PM 39.9 °F 37.8 °F 19.9 °F 45% 30.36 in 10.0 mi SE 3.5 mph - N/A   Clear
5:53 PM 39.0 °F - 19.9 °F 46% 30.38 in 10.0 mi Calm Calm - N/A   Clear
6:53 PM 33.1 °F 26.9 °F 21.9 °F 64% 30.40 in 10.0 mi SSE 6.9 mph - N/A   Clear
7:53 PM 33.1 °F 28.7 °F 23.0 °F 66% 30.41 in 10.0 mi SSE 4.6 mph - N/A   Clear
8:53 PM 33.1 °F 30.0 °F 23.0 °F 66% 30.41 in 10.0 mi SE 3.5 mph - N/A   Clear
9:53 PM 30.0 °F 26.5 °F 24.1 °F 79% 30.41 in 10.0 mi ESE 3.5 mph - N/A   Clear
10:53 PM 30.9 °F 25.2 °F 23.0 °F 72% 30.42 in 10.0 mi East 5.8 mph - N/A   Clear
11:53 PM 30.0 °F 25.2 °F 21.9 °F 72% 30.42 in 10.0 mi East 4.6 mph - N/A   Clear